Home   Weather   Tijuana   Past weeks

Flag for Mexico Past Weather in Tijuana, Baja California, Mexico — Yesterday and Last 2 Weeks

Now
68 °F

Sunny.


Feels Like: 68 °F
Forecast: 54 / 69 °F
Wind: 10 mph from Northwest

Location: Tijuana International Airport

Current Time: May 28, 2017 at 11:41:16 am

Latest Report: May 28, 2017 at 10:47 am


Visibility: 7 mi

Pressure: 30.06 "Hg

Humidity: 56%

Dew Point: 52 °F

Location of TijuanaLocation

Past Weather in Tijuana — Graph

°F

Tijuana Temperature Yesterday

Maximum temperature yesterday: 68 °F (at 11:49 am)
Minimum temperature yesterday: 57 °F (at 9:40 pm)
Average temperature yesterday: 63 °F

High & Low Weather Summary for the Past Weeks

 TemperatureHumidityPressure
High86 °F (May 19, 12:48 pm)94% (May 22, 1:42 am)30.12 "Hg (May 22, 1:42 am)
Low52 °F (May 28, 4:46 am)11% (May 19, 10:50 am)29.82 "Hg (May 19, 11:48 am)
Average63 °F62%29.96 "Hg
* Reported May 13 9:45 am — May 28 9:41 am, Tijuana. Weather by CustomWeather, © 2017

Note: Actual official high and low records may vary slightly from our data, if they occured in-between our weather recording intervals... More about our weather records

Advertising

Tijuana Weather History for the Previous 24 Hours

Scroll right to see more
 ConditionsComfort  
Time TempWeatherWind HumidityBarometerVisibility
9:41 am
Sun, May 28
64 °FPassing clouds.9 mph64%30.05 "Hg7 mi
8:41 am61 °FPartly sunny.6 mph68%30.05 "Hg6 mi
7:47 am59 °FPartly sunny.No wind72%30.06 "Hg6 mi
6:44 am55 °FPassing clouds.No wind77%30.04 "Hg6 mi
5:51 am54 °FPassing clouds.No wind77%30.03 "Hg6 mi
4:46 am52 °FClear.No wind82%30.03 "Hg8 mi
3:42 am54 °FClear.No wind77%30.03 "Hg8 mi
2:41 am55 °FClear.No wind77%30.04 "Hg8 mi
1:48 am57 °FClear.No wind72%30.07 "Hg8 mi
12:41 am57 °FClear.No wind77%30.06 "Hg8 mi
11:43 pm
Sat, May 27
59 °FClear.No wind72%30.06 "Hg8 mi
10:48 pm59 °FClear.No wind72%30.08 "Hg8 mi
9:40 pm57 °FClear.5 mph77%30.06 "Hg8 mi
8:43 pm59 °FClear.6 mph72%30.06 "Hg8 mi
7:44 pm61 °FSunny.8 mph63%30.05 "Hg10 mi
6:46 pm63 °FSunny.12 mph59%30.06 "Hg10 mi
5:42 pm64 °FSunny.9 mph56%30.06 "Hg10 mi
4:42 pm66 °FSunny.14 mph52%30.05 "Hg10 mi
4:05 pm66 °FSunny.14 mph52%30.06 "Hg10 mi
2:43 pm66 °FSunny.12 mph52%30.07 "Hg10 mi
1:52 pm68 °FSunny.13 mph53%30.12 "Hg10 mi
12:42 pm68 °FPassing clouds.14 mph53%30.07 "Hg10 mi
11:49 am68 °FScattered clouds.8 mph53%30.08 "Hg10 mi
Weather by CustomWeather, © 2017

See weather overviewHow to use our weather pages